Powrót do katalogu

STARLINK-32179

AktywnyŁącznośćVLEO
NORAD 60734·PAYLOAD·🇺🇸 United States

Wystrzelony Aug 28, 2024 z Cape Canaveral Space Force Station

Loading…

Następne Przeloty (najbliższe 24 godziny)

TLE

ŚwieżeSource: CelesTrak SupGP

Epoka: Sep 14, 2026, 15:06 UTC

1 60734C 24152Q   26257.62965278  .00009569  00000+0  28286-3 0  2575
2 60734  53.1570 108.7953 0001336  87.4995  34.1434 15.34368642    13

Śledź STARLINK-32179 w czasie rzeczywistym z AllMySat

Download on the App Store